ZDPS 2A

Last updated on Tue Jan 16 2024 00:02:57 GMT+0000 (Coordinated Universal Time)

1 40901U 15049C 24015.57098593 .04533590 24991-5 17604-2 0 9990 2 40901 97.3905 45.7903 0002542 183.8991 176.2281 16.24013229462356
UTC large
Height (km)
Speed (km/s)
/
Latitude / Longitude
Inclination (degrees)
Orbital Period (minutes)
Azimuth
Elevation
Range (km)
Doppler Factor

Next 0 passes for location: London (51.5072 / 0.1276)

Sorry there are no passes over London.